{"data":{"norad_id":64019,"epoch":"2026-05-24T20:44:56.140224Z","epoch_age_seconds":100844,"freshness":"FRESH","line1":"1 64019U 25101AB  26144.86453866  .00025687  00000+0  93848-3 0  9994","line2":"2 64019  42.9986 287.8923 0001601 243.8974 116.1712 15.27623201 58702","mean_motion":15.27623201,"eccentricity":0.0001601,"inclination_deg":42.9986,"raan_deg":287.8923,"arg_perigee_deg":243.8974,"mean_anomaly_deg":116.1712,"bstar":0.00093848,"rev_number":5870,"period_min":94.26408286136,"perigee_km":481.8212845687,"apogee_km":484.01819493677,"semimajor_km":6861.0567397527,"source":"CELESTRAK","updated_at":"2026-05-25T13:38:20.223374Z"}}